Date,TemperatureHighF,TemperatureAvgF,TemperatureLowF,DewpointHighF,DewpointAvgF,DewpointLowF,HumidityHigh,HumidityAvg,HumidityLow,PressureMaxIn,PressureMinIn,WindSpeedMaxMPH,WindSpeedAvgMPH,GustSpeedMaxMPH,PrecipitationSumIn
2013-12-1,56.3,39.9,33.8,34.1,25.2,15.1,79,58,28,29.91,29.56,0,0,0,0.00
2013-12-2,47.7,38.8,33.4,39.7,34.6,29.6,95,85,63,29.56,29.44,0,0,0,0.00
2013-12-3,56.8,39.5,32.5,43.5,32.7,26.8,96,80,37,29.56,29.44,0,0,0,0.00
2013-12-4,57.9,41.7,32.7,43.5,35.3,30.8,96,81,39,29.71,29.56,0,0,0,0.00
2013-12-5,57.4,52.9,45.3,54.8,50.6,43.5,94,92,91,29.68,29.50,0,0,0,0.00
2013-12-6,57.2,50.8,37.6,54.6,48.6,36.3,95,92,91,29.71,29.44,4,0,4,0.00
2013-12-7,46.4,35.9,28.6,39.4,27.6,12.9,95,74,49,30.03,29.65,5,0,5,0.00
2013-12-8,32.4,28.8,23.7,27.5,15.8,10.6,90,59,45,30.15,29.91,3,0,3,0.00
2013-12-9,40.3,35.6,29.7,39.0,34.2,27.5,96,95,90,29.91,29.50,5,0,5,0.00
2013-12-10,36.3,33.2,25.0,35.3,31.8,18.9,96,95,78,29.65,29.41,2,0,2,0.00
2013-12-11,39.2,27.4,22.1,19.1,12.5,8.1,79,54,34,29.85,29.65,8,0,8,0.00
2013-12-12,26.1,24.5,23.4,9.1,8.4,8.0,53,50,47,29.76,29.74,4,0,4,0.00
2013-12-13,36.5,27.1,19.2,10.9,-1.5,-9.0,51,29,19,29.88,29.65,8,0,8,0.00
2013-12-14,33.1,22.8,17.8,32.1,15.8,6.5,97,76,46,30.03,29.35,6,0,6,0.00
2013-12-15,37.9,34.4,30.4,36.6,30.2,17.3,96,85,58,29.38,29.03,8,0,8,0.00
2013-12-16,35.1,25.3,16.2,20.4,5.2,-7.4,67,43,20,29.76,29.35,7,0,7,0.00
2013-12-17,27.0,21.8,14.9,25.7,14.0,3.8,95,73,47,29.76,29.56,0,0,0,0.00
2013-12-20,49.1,48.8,48.6,27.3,27.0,26.3,43,42,42,29.56,29.53,0,0,0,0.00
2013-12-22,68.4,63.4,59.7,62.8,56.9,54.9,89,80,68,29.56,29.41,0,0,0,0.00
2013-12-23,61.0,54.5,39.0,58.0,52.1,37.7,95,92,88,29.71,29.47,3,0,8,0.00
2013-12-24,42.6,33.6,23.4,37.7,21.1,2.7,95,61,39,29.85,29.65,5,0,8,0.00
2013-12-25,31.1,22.2,15.8,4.0,-0.8,-9.0,49,37,20,30.06,29.85,7,0,7,0.00
2013-12-26,36.1,29.5,23.2,22.5,17.5,6.0,77,61,43,29.97,29.71,6,0,6,0.00
2013-12-27,41.0,32.5,26.8,22.0,14.7,4.5,76,50,23,29.91,29.79,4,0,4,0.00
2013-12-28,53.6,39.4,25.3,25.4,14.0,2.5,89,43,13,29.82,29.62,4,0,5,0.00
2013-12-29,46.9,40.1,35.2,43.2,32.0,16.1,95,75,40,29.62,29.00,3,0,4,0.00
2013-12-30,42.4,38.6,27.7,40.8,34.1,9.0,96,85,43,29.71,29.23,10,0,10,0.00
2013-12-31,30.4,27.7,23.5,18.2,7.8,-0.1,68,43,33,29.79,29.62,6,0,6,0.00